Regional Weather Roundup
Issued by NWS

Home | Current Version | Previous Version | Text Only | Print | Product List | Glossary Off
Versions: 1 2 3 4 5 6 7 8 9 10 11 12 13 14 15 16 17 18 19 20 21 22 23 24 25 26 27 28 29 30 31 32 33 34 35 36 37 38 39 40 41 42 43 44 45 46 47 48 49 50

000
ASUS44 KMEG 302310
RWRTN
TENNESSEE HOURLY STATE WEATHER ROUNDUP
NATIONAL WEATHER SERVICE MEMPHIS TN
500 PM CST FRI JAN 30 2015

TNZ002-004-019-021-049-052-054-088>092-310000-
WEST TENNESSEE

CITY           SKY/WX    TMP DP  RH WIND       PRES   REMARKS
MEMPHIS INTL   PTCLDY    47  21  35 NE7       30.42F
NWS MEMPHIS      N/A     46 N/A N/A MISG        N/A
JACKSON        CLEAR     45  21  38 N7        30.43S
DYERSBURG      CLEAR     43  16  33 NE6       30.46S
UNION CITY     CLEAR     37  21  52 N6        30.44S WCI  33
PARIS          CLEAR     39  19  45 N7        30.43S WCI  34
LEXINGTON      CLEAR     43  18  36 N5        30.41S
SAVANNAH       CLEAR     43  18  36 N6        30.42S
$$

TNZ008-025-027-028-033-062-065-066-310000-
NORTH MIDDLE TENNESSEE

CITY           SKY/WX    TMP DP  RH WIND       PRES   REMARKS
NASHVILLE      PTCLDY    41  19  41 N8        30.43S
CLARKSVILLE    CLEAR     40  20  44 N9        30.44S WCI  34
SMYRNA         CLEAR     41  20  43 N8        30.44R
COOKEVILLE     CLEAR     39  21  48 N3        30.38S
CROSSVILLE     CLEAR     36  17  46 N5        30.35R WCI  32
$$

TNZ061-075-076-078-094-096-097-310000-
SOUTH MIDDLE TENNESSEE

CITY           SKY/WX    TMP DP  RH WIND       PRES   REMARKS
FAYETTEVILLE   CLEAR     39  18  41 MISG      30.38S
TULLAHOMA      CLEAR     37  18  44 N7        30.39R WCI  32
WINCHESTER     CLEAR     39  21  48 N6        30.38S WCI  35
MCMINNVILLE    CLEAR     39  21  48 N6        30.38F WCI  35
COLUMBIA       CLEAR     43  19  39 N7        30.39S
SHELBYVILLE    CLEAR     39  23  52 N9        30.41S WCI  33
$$

TNZ017-018-042-046-047-310000-
NORTHEAST TENNESSEE

CITY           SKY/WX    TMP DP  RH WIND       PRES   REMARKS
TRI CITIES     PTCLDY    34  14  43 NW10      30.31S WCI  26
ELIZABETHTON   CLEAR     32  12  43 NW8       30.29R WCI  25
$$

TNZ012-013-036-069-073-074-310000-
CENTRAL EAST TENNESSEE

CITY           SKY/WX    TMP DP  RH WIND       PRES   REMARKS
KNOXVILLE      PTCLDY    39  17  41 N6        30.35F WCI  35
OAK RIDGE      CLEAR     41  17  38 NW6       30.38R
GATLINBURG     CLEAR     37  16  41 N3        30.35S
MORRISTOWN     CLEAR     37  18  44 N7        30.34S WCI  32
$$

TNZ083-085-099-310000-
SOUTHEAST TENNESSEE

CITY           SKY/WX    TMP DP  RH WIND       PRES   REMARKS
CHATTANOOGA    PTCLDY    44  20  38 N9        30.37R
$$

SKY/WX REPORTED AS FAIR MEANS FEW OR NO CLOUDS BELOW
12 THOUSAND FEET.




USA.gov is the U.S. government's official web portal to all federal, state and local government web resources and services.